Location: ??? ?????
(30.6482°N, 60.5850°E)
Time: 18:16:55
(UTC+00:00)

IDEFIX/ARIANE 42P - Pass Details

Date: 09 April 2020
Orbit: 786 x 802 km, 98.4° (Epoch: 06 June)

Event Time Altitude Azimuth Distance (km) Brightness Sun altitude
Rises 22:40:19 0° 22° (NNE) 3,286 6.5 -35.3°
Reaches altitude 10° 22:42:48 10° 31° (NNE) 2,356 5.7 -34.9°
Enters shadow 22:46:54 37° 79° (E) 1,224 3.8 -34.2°
